Regional Weather Roundup
Issued by NWS

Home | Current Version | Previous Version | Graphics & Text | Print | Product List | Glossary On
Versions: 1 2 3 4 5 6 7 8 9 10 11 12 13 14 15 16 17 18 19 20 21 22 23 24 25 26 27 28 29 30 31 32 33 34 35 36 37 38 39 40 41 42 43 44 45 46 47 48 49 50
000
ASUS43 KLMK 040702
RWRKY
KENTUCKY REGIONAL WEATHER ROUNDUP
NATIONAL WEATHER SERVICE LOUISVILLE KY
200 AM EST SUN DEC 04 2016

NOTE "FAIR" INDICATES FEW OR NO CLOUDS BELOW 12,000 FEET
WITH NO SIGNIFICANT WEATHER AND/OR OBSTRUCTIONS TO VISIBILITY.

KYZ001>023-026-027-061>063-070>075-040800-
WESTERN AND SOUTH CENTRAL KENTUCKY

CITY           SKY/WX    TMP DP  RH WIND       PRES   REMARKS
PADUCAH        CLOUDY    39  36  89 E5        30.16F
HENDERSON      CLOUDY    41  30  65 E9        30.20F
OWENSBORO      LGT RAIN  41  32  70 E7        30.21F
HOPKINSVILLE   DRIZZLE   39  37  90 E8        30.17F WCI  34
BOWLING GREEN  LGT RAIN  41  35  79 E3        30.21S
GLASGOW        LGT RAIN  39  34  81 NE3       30.21R
$$

KYZ024-025-028>034-038-045-046-053-040800-
NORTH CENTRAL KENTUCKY

CITY           SKY/WX    TMP DP  RH WIND       PRES   REMARKS
LOUISVILLE/SDF CLOUDY    41  28  60 E6        30.24F
LOUISVILLE/LOU CLOUDY    41  30  65 NE3       30.26S
FORT KNOX      CLOUDY    39  30  69 E3        30.21S
$$

KYZ035>037-039>044-047>052-055>060-089>105-040800-
NORTHEAST KENTUCKY

CITY           SKY/WX    TMP DP  RH WIND       PRES   REMARKS
LEXINGTON      CLOUDY    39  29  67 E6        30.23S WCI  35
COVINGTON      CLOUDY    36  31  82 CALM      30.25S
FRANKFORT      CLOUDY    39  28  64 E5        30.23S
$$

KYZ054-064>069-076>088-106>120-040800-
SOUTHEAST KENTUCKY

CITY           SKY/WX    TMP DP  RH WIND       PRES   REMARKS
JACKSON        CLOUDY    37  28  70 VRB3      30.22S
LONDON         CLOUDY    38  29  70 E3        30.21F
SOMERSET       CLOUDY    37  30  75 E5        30.22F WCI  34
MIDDLESBORO    CLOUDY    40  35  84 CALM      30.22F
MONTICELLO     LGT RAIN  39  33  79 W6        30.22F WCI  35
$$





USA.gov is the U.S. government's official web portal to all federal, state and local government web resources and services.